This is the latest recevied weather packets stored in our database for station/object PA3BWK. If no packets are shown the sender has not sent any weather packets the latest 10 day(s).
| Time | Temp. | Humidity | Pressure | Rain* | Wind** | Luminosity | Snow |
|---|---|---|---|---|---|---|---|
| 1777626184 | 17.78° C | 37% | 1025.8 hPa | 0 mm | - | 617 W/m² | - |
| 1777626123 | 17.22° C | 38% | 1026 hPa | 0 mm | - | 378 W/m² | - |
| 1777626062 | 17.22° C | 39% | 1025.9 hPa | 0 mm | - | 53 W/m² | - |
| 1777626004 | 17.22° C | 38% | 1025.9 hPa | 0 mm | - | 51 W/m² | - |
| 1777625943 | 17.22° C | 39% | 1026 hPa | 0 mm | - | 49 W/m² | - |
| 1777625883 | 17.22° C | 39% | 1025.9 hPa | 0 mm | - | 49 W/m² | - |
| 1777625824 | 17.22° C | 39% | 1025.9 hPa | 0 mm | - | 49 W/m² | - |
| 1777625765 | 17.22° C | 39% | 1025.8 hPa | 0 mm | - | 49 W/m² | - |
| 1777625705 | 17.22° C | 40% | 1025.9 hPa | 0 mm | - | 49 W/m² | - |
| 1777625645 | 17.22° C | 40% | 1025.9 hPa | 0 mm | - | 49 W/m² | - |
| 1777625582 | 17.22° C | 39% | 1025.9 hPa | 0 mm | - | 49 W/m² | - |
| 1777625522 | 16.67° C | 39% | 1026 hPa | 0 mm | - | 48 W/m² | - |
| 1777625463 | 16.67° C | 40% | 1025.9 hPa | 0 mm | - | 48 W/m² | - |
| 1777625402 | 16.67° C | 40% | 1026 hPa | 0 mm | - | 48 W/m² | - |
| 1777625343 | 16.67° C | 39% | 1025.9 hPa | 0 mm | - | 88 W/m² | - |
| 1777625282 | 16.67° C | 40% | 1025.9 hPa | 0 mm | - | 303 W/m² | - |
| 1777625222 | 16.67° C | 40% | 1025.9 hPa | 0 mm | - | 529 W/m² | - |
| 1777625164 | 16.67° C | 40% | 1025.9 hPa | 0 mm | - | 552 W/m² | - |
| 1777625103 | 16.67° C | 40% | 1025.9 hPa | 0 mm | - | 482 W/m² | - |
| 1777625043 | 16.67° C | 40% | 1025.9 hPa | 0 mm | - | 376 W/m² | - |
| 1777624982 | 16.67° C | 39% | 1025.9 hPa | 0 mm | - | 104 W/m² | - |
| 1777624922 | 16.67° C | 39% | 1025.9 hPa | 0 mm | - | 155 W/m² | - |
| 1777624864 | 16.67° C | 40% | 1025.9 hPa | 0 mm | - | 55 W/m² | - |
| 1777624803 | 16.11° C | 40% | 1025.9 hPa | 0 mm | - | 49 W/m² | - |
| 1777624743 | 16.11° C | 40% | 1025.9 hPa | 0 mm | - | 42 W/m² | - |
* Rain latest hour (hover to see other rain measurements)
** Current wind speed in m/s (hover to see current wind gust speed)